Weather History for Vero Beach, FL

Change the Weather History Date:

Monday, September 5, 2011

  Actual Average Record
Temperature  
Mean Temperature 86 °F 81 °F  
Max Temperature 94 °F 89 °F 96 °F (1996)
Min Temperature 78 °F 74 °F 69 °F (1978)
Degree Days  
Heating Degree Days 0 0  
Month to date heating degree days 0 0  
Since 1 July heating degree days 0 0  
Cooling Degree Days 21 16  
Month to date cooling degree days 80 80  
Year to date cooling degree days 2633 2378  
Growing Degree Days 36 (Base 50)    
Moisture  
Dew Point 75 °F    
Average Humidity 70    
Maximum Humidity 91    
Minimum Humidity 49    
Precipitation  
Precipitation 0.00 in 0.22 in 7.30 in (2004)
Month to date precipitation 1.78 1.18  
Year to date precipitation 30.15 35.88  
Sea Level Pressure  
Sea Level Pressure 29.88 in    
Wind  
Wind Speed 8 mph (South)    
Max Wind Speed 21 mph    
Max Gust Speed 25 mph    
Visibility 10 miles    
Events      
T = Trace of Precipitation, MM = Missing Value Source: NWS Daily Summary

Daily Weather History Graph

Daily Weather History Graph

Search for Another Location

Airport:

Trip Planner

Search our weather history database for the weather conditions in past years. The results will help you decide how hot, cold, wet, or windy it might be!

Date:

Astronomy

Sep. 05, 2011 Rise Set
Actual Time 7:02 AM EDT 7:38 PM EDT
Civil Twilight 6:38 AM EDT 8:01 PM EDT
Nautical Twilight 6:10 AM EDT 8:29 PM EDT
Astronomical Twilight 5:42 AM EDT 8:57 PM EDT
Moon 2:58 PM EDT (9/5) 12:41 AM EDT (9/5)
Length of Visible Light 13h 23m
Length of Day
12h 35m
First Quarter, 60% of the Moon is Illuminated
Sep 5
First Quarter
Sep 12
Full
Sep 20
Last Quarter
Sep 27
New
Oct 3
First Quarter

Hourly Weather History & Observations

Time (EDT) Temp. Heat Index Dew Point Humidity Pressure Visibility Wind Dir Wind Speed Gust Speed Precip Events Conditions
12:53 AM 78.1 °F - 75.0 °F 90% 29.91 in 10.0 mi South 5.8 mph - N/A   Clear
1:53 AM 78.1 °F - 75.0 °F 90% 29.90 in 10.0 mi SSE 3.5 mph - N/A   Scattered Clouds
2:53 AM 78.1 °F - 75.0 °F 90% 29.88 in 10.0 mi South 4.6 mph - N/A   Scattered Clouds
3:53 AM 78.1 °F - 75.9 °F 93% 29.88 in 10.0 mi South 5.8 mph - N/A   Clear
4:53 AM 78.1 °F - 75.9 °F 93% 29.88 in 10.0 mi South 4.6 mph - N/A   Clear
5:53 AM 78.1 °F - 75.9 °F 93% 29.88 in 10.0 mi SSW 5.8 mph - N/A   Clear
6:53 AM 78.8 °F - 75.2 °F 89% 29.88 in 10.0 mi SSW 5.8 mph - N/A   Clear
7:53 AM 78.1 °F - 75.9 °F 93% 29.90 in 10.0 mi South 6.9 mph - N/A   Clear
9:53 AM 84.9 °F 94.1 °F 75.9 °F 74% 29.90 in 10.0 mi SSW 11.5 mph - N/A   Clear
10:53 AM 87.8 °F 95.6 °F 73.4 °F 62% 29.91 in 10.0 mi SW 8.1 mph - N/A   Clear
11:53 AM 91.0 °F 100.4 °F 73.9 °F 57% 29.91 in 10.0 mi South 15.0 mph - N/A   Scattered Clouds
12:53 PM 91.9 °F 100.7 °F 73.0 °F 54% 29.89 in 10.0 mi SSW 11.5 mph 17.3 mph N/A   Scattered Clouds
1:53 PM 93.0 °F 100.1 °F 71.1 °F 49% 29.88 in 10.0 mi South 15.0 mph 18.4 mph N/A   Partly Cloudy
2:53 PM 93.9 °F 100.8 °F 71.1 °F 47% 29.85 in 10.0 mi SSW 11.5 mph - N/A   Partly Cloudy
3:53 PM 91.0 °F 104.2 °F 77.0 °F 63% 29.83 in 10.0 mi SE 11.5 mph - N/A   Mostly Cloudy
4:53 PM 91.0 °F 106.2 °F 78.1 °F 66% 29.82 in 10.0 mi SE 12.7 mph - N/A   Mostly Cloudy
5:53 PM 90.0 °F 102.5 °F 77.0 °F 65% 29.83 in 10.0 mi SSE 13.8 mph - N/A   Scattered Clouds
6:53 PM 88.0 °F 95.6 °F 73.0 °F 61% 29.85 in 10.0 mi WSW 12.7 mph 18.4 mph N/A   Scattered Clouds
7:13 PM 80.6 °F 84.6 °F 71.6 °F 74% 29.85 in 10.0 mi WNW 10.4 mph - N/A   Mostly Cloudy
7:53 PM 80.6 °F 85.4 °F 73.4 °F 79% 29.85 in 10.0 mi Calm Calm - N/A   Clear
8:53 PM 79.0 °F - 73.0 °F 82% 29.87 in 10.0 mi Calm Calm - N/A   Clear
9:53 PM 81.0 °F 86.7 °F 75.0 °F 82% 29.88 in 10.0 mi Calm Calm - N/A   Partly Cloudy
10:53 PM 82.0 °F 88.6 °F 75.0 °F 79% 29.88 in 10.0 mi SSE 6.9 mph - N/A   Clear
11:53 PM 82.0 °F 88.6 °F 75.0 °F 79% 29.89 in 10.0 mi South 6.9 mph - N/A   Clear